FW3572 Weather Reports


time (UTC)temp
F
wind
direction
speed
knots
gust
knots
rain 1hr
in
rain 24hr
in
rain mn
in
humidity
%
barometer
mb
20260509201044 86 127 6.1 12.2 0.00 0.00 0.00 100 1013.1
20260509200544 86 126 6.1 12.2 0.00 0.00 0.00 100 1013.2
20260509200044 86 130 4.3 13.9 0.00 0.00 0.00 100 1013.2
20260509195543 85 147 7.8 15.6 0.00 0.00 0.00 100 1013.2
20260509195043 85 156 7.8 15.6 0.00 0.00 0.00 100 1013.2
20260509194545 85 224 7.0 12.2 0.00 0.00 0.00 100 1013.4
20260509194043 85 182 7.0 13.0 0.00 0.00 0.00 100 1013.3
20260509193543 86 185 5.2 16.5 0.00 0.00 0.00 100 1013.4
20260509193054 85 182 8.7 17.4 0.00 0.00 0.00 100 1013.4
20260509192542 85 134 8.7 17.4 0.00 0.00 0.00 100 1013.5
20260509192040 85 136 7.8 16.5 0.00 0.00 0.00 100 1013.5
20260509191540 86 142 8.7 13.9 0.00 0.00 0.00 100 1013.7
20260509191039 86 150 6.1 12.2 0.00 0.00 0.00 100 1013.8
20260509190541 86 128 6.1 14.8 0.00 0.00 0.00 100 1013.7
20260509190046 87 138 5.2 14.8 0.00 0.00 0.00 100 1013.8
20260509185538 87 151 4.3 16.5 0.00 0.00 0.00 100 1013.9
20260509185037 86 120 7.8 16.5 0.00 0.00 0.00 100 1013.9
20260509184537 86 146 8.7 14.8 0.00 0.00 0.00 100 1014.0
20260509184037 86 130 5.2 15.6 0.00 0.00 0.00 100 1014.0
20260509183607 85 146 6.1 16.5 0.00 0.00 0.00 100 1013.9
20260509183038 85 169 7.8 15.6 0.00 0.00 0.00 100 1013.9
20260509182536 85 138 6.1 13.0 0.00 0.00 0.00 100 1014.0
20260509182036 86 146 7.0 15.6 0.00 0.00 0.00 100 1014.0
20260509181535 85 147 7.8 15.6 0.00 0.00 0.00 100 1014.1
20260509181035 85 127 7.0 14.8 0.00 0.00 0.00 100 1014.1
20260509180534 85 149 8.7 15.6 0.00 0.00 0.00 100 1014.2
20260509180034 85 149 8.7 15.6 0.00 0.00 0.00 100 1014.3
20260509175532 86 179 6.1 13.9 0.00 0.00 0.00 100 1014.3
20260509175035 86 135 5.2 14.8 0.00 0.00 0.00 100 1014.3
20260509174534 86 159 7.0 14.8 0.00 0.00 0.00 100 1014.4
20260509174033 86 146 2.6 10.4 0.00 0.00 0.00 100 1014.4
20260509173532 86 148 3.5 13.0 0.00 0.00 0.00 100 1014.3
20260509173031 87 171 6.1 13.0 0.00 0.00 0.00 100 1014.3
20260509172534 87 121 6.1 13.0 0.00 0.00 0.00 100 1014.5
20260509172031 87 116 5.2 12.2 0.00 0.00 0.00 100 1014.6
20260509171531 88 174 3.5 12.2 0.00 0.00 0.00 100 1014.6
20260509171030 90 143 5.2 12.2 0.00 0.00 0.00 100 1014.6
20260509170528 90 162 4.3 10.4 0.00 0.00 0.00 100 1014.6
20260509170030 90 213 5.2 12.2 0.00 0.00 0.00 100 1014.6
20260509165527 90 188 2.6 10.4 0.00 0.00 0.00 100 1014.6
20260509165023 90 267 4.3 10.4 0.00 0.00 0.00 100 1014.7
20260509164522 90 234 4.3 10.4 0.00 0.00 0.00 100 1014.8
20260509164021 90 188 4.3 10.4 0.00 0.00 0.00 100 1014.9
20260509163519 90 180 4.3 10.4 0.00 0.00 0.00 100 1014.9
20260509163023 89 207 3.5 10.4 0.00 0.00 0.00 100 1015.1
20260509162518 89 198 5.2 13.9 0.00 0.00 0.00 100 1015.2
20260509162018 89 175 4.3 13.9 0.00 0.00 0.00 100 1015.1
20260509161518 89 211 3.5 11.3 0.00 0.00 0.00 100 1015.3
20260509161014 89 200 2.6 8.7 0.00 0.00 0.00 100 1015.2
20260509160514 89 204 4.3 8.7 0.00 0.00 0.00 100 1015.3
20260509160014 88 204 2.6 8.7 0.00 0.00 0.00 100 1015.5
20260509155510 88 238 4.3 8.7 0.00 0.00 0.00 100 1015.6
20260509155008 88 165 4.3 9.6 0.00 0.00 0.00 100 1015.5
20260509154507 88 246 3.5 9.6 0.00 0.00 0.00 100 1015.6
20260509154006 88 198 2.6 9.6 0.00 0.00 0.00 100 1015.8
20260509153507 88 230 4.3 7.8 0.00 0.00 0.00 100 1015.9
20260509153009 88 207 3.5 8.7 0.00 0.00 0.00 100 1015.9
20260509152501 88 233 3.5 9.6 0.00 0.00 0.00 100 1016.0
20260509152101 87 175 3.5 11.3 0.00 0.00 0.00 100 1016.0
20260509151559 87 267 5.2 11.3 0.00 0.00 0.00 100 1016.0
20260509151056 87 178 4.3 8.7 0.00 0.00 0.00 100 1015.9
20260509150557 87 238 3.5 9.6 0.00 0.00 0.00 100 1016.0
20260509150053 87 226 3.5 14.8 0.00 0.00 0.00 100 1015.9
20260509145552 86 232 4.3 14.8 0.00 0.00 0.00 100 1016.0
20260509145051 86 246 3.5 8.7 0.00 0.00 0.00 100 1015.9
20260509144549 86 202 2.6 10.4 0.00 0.00 0.00 100 1015.9
20260509144047 85 194 4.3 10.4 0.00 0.00 0.00 100 1015.8
20260509143547 85 225 3.5 9.6 0.00 0.00 0.00 100 1015.8
20260509143050 85 207 3.5 10.4 0.00 0.00 0.00 100 1015.8
20260509142544 85 231 4.3 10.4 0.00 0.00 0.00 100 1015.8
20260509142043 84 246 2.6 7.8 0.00 0.00 0.00 100 1015.8
20260509141544 84 240 2.6 12.2 0.00 0.00 0.00 100 1015.7
20260509141040 83 211 3.5 12.2 0.00 0.00 0.00 100 1015.8
20260509140539 83 239 3.5 8.7 0.00 0.00 0.00 100 1015.9
20260509140043 83 202 1.7 8.7 0.00 0.00 0.00 100 1016.0
20260509135537 82 218 3.5 7.0 0.00 0.00 0.00 100 1016.1
20260509135037 82 252 2.6 6.1 0.00 0.00 0.00 100 1016.1
20260509134545 81 192 1.7 7.8 0.00 0.00 0.00 100 1016.1
20260509134034 81 224 2.6 7.8 0.00 0.00 0.00 100 1016.2
20260509133534 81 205 2.6 7.8 0.00 0.00 0.00 100 1016.2
20260509133033 80 254 3.5 7.0 0.00 0.00 0.00 100 1016.2
20260509132532 80 232 0.9 6.1 0.00 0.00 0.00 100 1016.1
20260509132031 80 234 2.6 7.8 0.00 0.00 0.00 100 1016.0
20260509131533 79 233 1.7 7.0 0.00 0.00 0.00 100 1016.1
20260509131030 79 232 2.6 7.0 0.00 0.00 0.00 100 1015.9
20260509130529 79 207 0.9 7.0 0.00 0.00 0.00 100 1015.8
20260509130029 79 225 1.7 8.7 0.00 0.00 0.00 100 1015.8
20260509125528 78 235 2.6 8.7 0.00 0.00 0.00 100 1015.7
20260509125028 78 209 1.7 7.0 0.00 0.00 0.00 100 1015.7
20260509124527 77 240 2.6 7.0 0.00 0.00 0.00 100 1015.6
20260509124029 77 244 2.6 7.0 0.00 0.00 0.00 100 1015.7
20260509123527 77 215 1.7 7.0 0.00 0.00 0.00 100 1015.6
20260509123026 77 204 0.9 7.0 0.00 0.00 0.00 100 1015.4
20260509122527 76 237 2.6 7.0 0.00 0.00 0.00 100 1015.5
20260509122028 76 200 1.7 5.2 0.00 0.00 0.00 100 1015.3
20260509121529 76 192 2.6 5.2 0.00 0.00 0.00 100 1015.3
20260509121026 76 184 1.7 6.1 0.00 0.00 0.00 100 1015.3
20260509120526 76 234 2.6 6.1 0.00 0.00 0.00 100 1015.3
20260509120027 76 172 2.6 4.3 0.00 0.00 0.00 100 1015.3
20260509115526 76 223 2.6 6.1 0.00 0.00 0.00 100 1015.2
20260509115025 76 167 2.6 6.1 0.00 0.00 0.00 100 1015.2
20260509114525 76 209 0.0 4.3 0.00 0.00 0.00 100 1015.2
20260509114032 75 236 0.9 4.3 0.00 0.00 0.00 100 1015.2
20260509113526 75 230 0.9 3.5 0.00 0.00 0.00 100 1015.1
20260509113027 75 241 0.0 2.6 0.00 0.00 0.00 100 1015.1
20260509112525 75 206 0.0 0.0 0.00 0.00 0.00 100 1014.9
20260509112025 75 204 0.0 0.0 0.00 0.00 0.00 100 1015.1
20260509111525 75 204 0.0 0.0 0.00 0.00 0.00 100 1015.1
20260509111025 75 191 0.0 0.0 0.00 0.00 0.00 100 1015.0
20260509110525 75 191 0.0 0.0 0.00 0.00 0.00 100 1015.0
20260509110024 75 191 0.0 0.0 0.00 0.00 0.00 100 1014.9
20260509105529 75 190 0.0 0.0 0.00 0.00 0.00 100 1015.0
20260509105024 75 190 0.0 0.0 0.00 0.00 0.00 100 1014.9
20260509104524 75 169 0.0 0.0 0.00 0.00 0.00 100 1014.8
20260509104023 75 169 0.0 0.0 0.00 0.00 0.00 100 1014.8
20260509103524 75 169 0.0 0.0 0.00 0.00 0.00 100 1014.8
20260509103026 75 169 0.0 0.0 0.00 0.00 0.00 100 1014.8
20260509102525 75 169 0.0 0.0 0.00 0.00 0.00 100 1014.7
20260509102025 75 169 0.0 0.0 0.00 0.00 0.00 100 1014.7
20260509101524 75 169 0.0 0.0 0.00 0.00 0.00 100 1014.7
20260509101023 75 169 0.0 0.0 0.00 0.00 0.00 100 1014.7
20260509100522 75 169 0.0 0.0 0.00 0.00 0.00 100 1014.6
20260509100023 75 169 0.0 0.0 0.00 0.00 0.00 100 1014.6
20260509095523 75 169 0.0 0.0 0.00 0.00 0.00 100 1014.5
20260509095021 75 175 0.0 0.0 0.00 0.00 0.00 100 1014.4
20260509094522 75 175 0.0 0.9 0.00 0.00 0.00 100 1014.5
20260509094022 75 174 0.0 7.0 0.00 0.00 0.00 100 1014.5
20260509093524 75 173 0.9 7.0 0.00 0.00 0.00 100 1014.5
20260509093021 75 146 1.7 5.2 0.00 0.00 0.00 100 1014.6
20260509092521 75 162 0.9 5.2 0.00 0.00 0.00 100 1014.5
20260509092020 76 177 0.9 3.5 0.00 0.00 0.00 100 1014.6
20260509091528 76 180 0.9 3.5 0.00 0.00 0.00 100 1014.6
20260509091019 75 226 0.0 2.6 0.00 0.00 0.00 100 1014.7
20260509090518 75 227 0.0 2.6 0.00 0.00 0.00 100 1014.7
20260509090018 75 230 0.0 0.9 0.00 0.00 0.00 100 1014.7
20260509085517 75 230 0.0 0.0 0.00 0.00 0.00 100 1014.8
20260509085017 75 230 0.0 0.0 0.00 0.00 0.00 100 1014.9
20260509084524 75 230 0.0 1.7 0.00 0.00 0.00 100 1014.9
20260509084016 75 230 0.0 1.7 0.00 0.00 0.00 100 1015.0
20260509083520 75 229 0.0 2.6 0.00 0.00 0.00 100 1015.0
20260509083017 75 229 0.0 2.6 0.00 0.00 0.00 100 1015.0
20260509082519 75 219 0.0 1.7 0.00 0.00 0.00 100 1014.9
20260509082017 75 219 0.0 1.7 0.00 0.00 0.00 100 1015.0
20260509081517 75 219 0.0 0.0 0.00 0.00 0.00 100 1015.0
20260509081017 75 219 0.0 0.0 0.00 0.00 0.00 100 1014.9
20260509080515 75 219 0.0 0.0 0.00 0.00 0.00 100 1014.9
20260509080023 75 219 0.0 0.0 0.00 0.00 0.00 100 1014.9
20260509075516 75 219 0.0 0.0 0.00 0.00 0.00 100 1014.8
20260509075020 74 219 0.0 0.0 0.00 0.00 0.00 100 1014.9
20260509074516 74 219 0.0 0.0 0.00 0.00 0.00 100 1014.9
20260509074014 75 219 0.0 0.0 0.00 0.00 0.00 100 1014.9
20260509073514 75 219 0.0 1.7 0.00 0.00 0.00 100 1014.8
20260509073035 75 219 0.0 1.7 0.00 0.00 0.00 100 1014.8
20260509072515 75 219 0.0 0.0 0.00 0.00 0.00 100 1014.8
20260509072014 75 219 0.0 0.0 0.00 0.00 0.00 100 1014.8
20260509071514 75 219 0.0 0.9 0.00 0.00 0.00 100 1014.8
20260509071013 75 219 0.0 0.9 0.00 0.00 0.00 100 1014.8
20260509070512 75 219 0.0 2.6 0.00 0.00 0.00 100 1014.8
20260509070019 75 219 0.0 2.6 0.00 0.00 0.00 100 1015.0
20260509065515 75 221 0.0 1.7 0.00 0.00 0.00 100 1014.9
20260509065013 75 221 0.0 1.7 0.00 0.00 0.00 100 1014.9
20260509064511 75 229 0.0 3.5 0.00 0.00 0.00 100 1014.9
20260509064012 75 229 0.9 3.5 0.00 0.00 0.00 100 1014.9
20260509063510 75 234 0.0 2.6 0.00 0.00 0.00 100 1015.1
20260509063010 75 232 0.0 0.0 0.00 0.00 0.00 100 1015.0
20260509062513 75 232 0.0 0.0 0.00 0.00 0.00 100 1015.0
20260509062009 75 232 0.0 1.7 0.00 0.00 0.00 100 1015.1
20260509061509 75 232 0.0 2.6 0.00 0.00 0.00 100 1015.2
20260509061011 75 232 0.9 3.5 0.00 0.00 0.00 100 1015.3
20260509060509 75 232 0.9 4.3 0.00 0.00 0.00 100 1015.2
20260509060015 75 227 0.0 3.5 0.00 0.00 0.00 100 1015.3
20260509055508 75 227 0.0 3.5 0.00 0.00 0.00 100 1015.4
20260509055009 75 224 0.9 3.5 0.00 0.00 0.00 100 1015.4
20260509054506 75 231 0.0 7.8 0.00 0.00 0.00 100 1015.5
20260509054005 75 231 1.7 7.8 0.00 0.00 0.00 100 1015.5
20260509053505 76 229 1.7 7.8 0.00 0.00 0.00 100 1015.5
20260509053010 76 232 3.5 7.8 0.00 0.00 0.00 100 1015.6
20260509052503 76 269 0.9 7.8 0.00 0.00 0.00 100 1015.5
20260509052001 77 254 2.6 6.1 0.00 0.00 0.00 100 1015.7
20260509051501 77 240 1.7 7.0 0.00 0.00 0.00 100 1015.6
20260509051103 77 234 3.5 7.0 0.00 0.00 0.00 100 1015.7
20260509050559 77 238 0.9 4.3 0.00 0.00 0.00 100 1015.7
20260509050058 77 236 0.0 3.5 0.00 0.00 0.00 100 1015.7
20260509045557 77 232 0.9 3.5 0.00 0.00 0.00 100 1015.8
20260509045057 78 189 0.9 4.3 0.00 0.00 0.00 100 1015.7
20260509044557 78 220 0.9 4.3 0.00 0.00 0.00 100 1015.8
20260509044058 78 250 1.7 4.3 0.00 0.00 0.00 100 1015.7
20260509043554 78 223 0.0 6.1 0.00 0.00 0.00 100 1015.7
20260509043058 79 146 0.0 8.7 0.00 0.00 0.00 100 1015.6
20260509042555 79 163 3.5 8.7 0.00 0.00 0.00 100 1015.6
20260509042055 79 157 4.3 8.7 0.00 0.00 0.00 100 1015.4
20260509041554 79 172 4.3 8.7 0.00 0.00 0.00 100 1015.5
20260509041052 79 210 4.3 8.7 0.00 0.00 0.00 100 1015.5
20260509040557 79 180 5.2 10.4 0.00 0.00 0.00 100 1015.5
20260509035550 79 157 3.5 8.7 0.00 0.00 0.00 100 1015.6
20260509035049 79 149 4.3 9.6 0.00 0.00 0.00 100 1015.7
20260509034548 79 161 4.3 7.8 0.00 0.00 0.00 100 1015.7
20260509034048 79 123 3.5 7.0 0.00 0.00 0.00 100 1015.6
20260509033548 79 148 1.7 7.0 0.00 0.00 0.00 100 1015.7
20260509033050 79 171 1.7 8.7 0.00 0.00 0.00 100 1015.8
20260509032548 79 172 3.5 9.6 0.00 0.00 0.00 100 1015.9
20260509032048 79 151 3.5 10.4 0.00 0.00 0.00 100 1015.7
20260509031547 79 153 3.5 7.8 0.00 0.00 0.00 100 1015.8
20260509031047 79 161 2.6 8.7 0.00 0.00 0.00 100 1015.8
20260509030546 79 160 4.3 8.7 0.00 0.00 0.00 100 1015.8
20260509030047 79 157 3.5 7.8 0.00 0.00 0.00 100 1015.8
20260509025547 79 153 3.5 7.8 0.00 0.00 0.00 100 1015.7
20260509025046 79 142 4.3 8.7 0.00 0.00 0.00 100 1015.8
20260509024546 79 179 3.5 8.7 0.00 0.00 0.00 100 1015.8
20260509024046 79 165 1.7 7.8 0.00 0.00 0.00 100 1015.8
20260509023546 79 141 1.7 7.8 0.00 0.00 0.00 100 1015.7
20260509023047 79 153 2.6 7.8 0.00 0.00 0.00 100 1015.7
20260509022545 79 136 3.5 7.8 0.00 0.00 0.00 100 1015.7
20260509022048 79 161 3.5 7.8 0.00 0.00 0.00 100 1015.7
20260509021546 79 153 3.5 7.8 0.00 0.00 0.00 100 1015.6
20260509021044 79 112 3.5 8.7 0.00 0.00 0.00 100 1015.6
20260509020544 79 169 4.3 8.7 0.00 0.00 0.00 100 1015.5
20260509020045 79 150 3.5 7.0 0.00 0.00 0.00 100 1015.5
20260509015556 79 142 2.6 7.0 0.00 0.00 0.00 100 1015.5
20260509015045 79 136 1.7 8.7 0.00 0.00 0.00 100 1015.4
20260509014544 79 161 4.3 8.7 0.00 0.00 0.00 100 1015.3
20260509014047 79 158 3.5 8.7 0.00 0.00 0.00 100 1015.2
20260509013544 79 138 2.6 7.8 0.00 0.00 0.00 100 1015.3
20260509013057 79 142 3.5 9.6 0.00 0.00 0.00 100 1015.3
20260509012543 79 133 5.2 8.7 0.00 0.00 0.00 100 1015.2
20260509012042 79 117 2.6 7.8 0.00 0.00 0.00 100 1015.3
20260509011543 79 150 4.3 7.8 0.00 0.00 0.00 100 1015.3
20260509011043 79 169 3.5 7.0 0.00 0.00 0.00 100 1015.3
20260509010542 79 178 2.6 8.7 0.00 0.00 0.00 100 1015.2
20260509010043 79 157 4.3 8.7 0.00 0.00 0.00 100 1015.3
20260509005541 80 146 2.6 7.8 0.00 0.00 0.00 100 1015.2
20260509005042 79 132 3.5 7.8 0.00 0.00 0.00 100 1015.1
20260509004604 80 141 4.3 8.7 0.00 0.00 0.00 100 1015.0
20260509004041 79 132 4.3 8.7 0.00 0.00 0.00 100 1015.0
20260509003541 80 161 2.6 7.8 0.00 0.00 0.00 100 1015.1
20260509003045 80 148 2.6 7.0 0.00 0.00 0.00 100 1014.9
20260509002543 80 144 2.6 8.7 0.00 0.00 0.00 100 1014.8
20260509002040 80 157 2.6 8.7 0.00 0.00 0.00 100 1014.7
20260509001543 80 132 3.5 8.7 0.00 0.00 0.00 100 1014.7
20260509001046 80 161 3.5 8.7 0.00 0.00 0.00 100 1014.7
20260509000542 80 134 4.3 8.7 0.00 0.00 0.00 100 1014.6
20260509000040 80 121 1.7 8.7 0.00 0.00 0.00 100 1014.6
20260508235541 80 161 4.3 8.7 0.00 0.00 0.00 100 1014.5
20260508235040 80 150 1.7 8.7 0.00 0.00 0.00 100 1014.3
20260508234545 80 148 2.6 8.7 0.00 0.00 0.00 100 1014.2
20260508234040 80 183 4.3 8.7 0.00 0.00 0.00 100 1014.2
20260508233540 80 130 2.6 7.8 0.00 0.00 0.00 100 1014.2
20260508233039 80 163 3.5 7.8 0.00 0.00 0.00 100 1014.2
20260508232541 80 146 4.3 7.8 0.00 0.00 0.00 100 1014.2
20260508232040 80 153 2.6 9.6 0.00 0.00 0.00 100 1014.1
20260508231538 80 136 3.5 9.6 0.00 0.00 0.00 100 1014.1
20260508231038 80 150 4.3 9.6 0.00 0.00 0.00 100 1014.1
20260508230539 80 146 4.3 9.6 0.00 0.00 0.00 100 1013.9
20260508230051 80 136 5.2 8.7 0.00 0.00 0.00 100 1013.9
20260508225538 81 157 3.5 8.7 0.00 0.00 0.00 100 1013.9
20260508225041 80 156 3.5 8.7 0.00 0.00 0.00 100 1013.9
20260508224537 81 142 3.5 12.2 0.00 0.00 0.00 100 1013.9
20260508224037 81 130 5.2 12.2 0.00 0.00 0.00 100 1013.7
20260508223536 80 150 7.0 12.2 0.00 0.00 0.00 100 1013.8
20260508223037 81 113 3.5 10.4 0.00 0.00 0.00 100 1013.7
20260508222540 81 136 3.5 10.4 0.00 0.00 0.00 100 1013.6
20260508222037 81 132 4.3 7.8 0.00 0.00 0.00 100 1013.6
20260508221537 81 113 3.5 8.7 0.00 0.00 0.00 100 1013.9
20260508221037 81 126 4.3 9.6 0.00 0.00 0.00 100 1013.9
20260508220535 81 165 4.3 9.6 0.00 0.00 0.00 100 1013.9
20260508220033 81 128 5.2 9.6 0.00 0.00 0.00 100 1013.9
20260508215537 81 150 4.3 9.6 0.00 0.00 0.00 100 1014.0
20260508215034 82 166 4.3 9.6 0.00 0.00 0.00 100 1014.0
20260508214534 82 132 2.6 11.3 0.00 0.00 0.00 100 1013.9
20260508214033 81 134 4.3 11.3 0.00 0.00 0.00 100 1014.1
20260508213533 82 152 3.5 8.7 0.00 0.00 0.00 100 1014.0
20260508213033 82 157 4.3 9.6 0.00 0.00 0.00 100 1014.0
20260508212533 82 153 2.6 10.4 0.00 0.00 0.00 100 1013.9
20260508212032 82 142 3.5 9.6 0.00 0.00 0.00 100 1014.1
20260508211535 82 138 2.6 8.7 0.00 0.00 0.00 100 1014.0
20260508211031 82 146 4.3 11.3 0.00 0.00 0.00 100 1014.1
20260508210533 82 130 3.5 11.3 0.00 0.00 0.00 100 1014.1
20260508210035 83 162 3.5 8.7 0.00 0.00 0.00 100 1014.1
20260508205530 82 140 2.6 9.6 0.00 0.00 0.00 100 1014.3
20260508205031 82 103 4.3 11.3 0.00 0.00 0.00 100 1014.5
20260508204530 82 107 6.1 11.3 0.00 0.00 0.00 100 1014.5
20260508204028 82 156 4.3 10.4 0.00 0.00 0.00 100 1014.6
20260508203529 83 86 3.5 10.4 0.00 0.00 0.00 100 1014.5
20260508203028 83 134 2.6 8.7 0.00 0.00 0.00 100 1014.5
20260508202528 83 128 2.6 8.7 0.00 0.00 0.00 100 1014.6
20260508202028 82 113 6.1 9.6 0.00 0.00 0.00 100 1014.5
20260508201527 83 148 4.3 11.3 0.00 0.00 0.00 100 1014.6